Weather in Omsky

Russia / Omsk Oblast     55°06′10″N   73°20′38″E
temp.,
°C
wind,
m/s
gust,
m/s
humid.,
%
clouds,
%
prec.,
mm/h
press.,
hPa
HPBL,
m
16 september, thu
thu1600:00+15ssw41053100 0.0 1007193
03:00+15ssw511545 0.0 1005275
06:00+12ssw4107642 0.0 1005207
09:00+16ssw51165100 0.0 1004472
12:00+20ssw7849100 0.0 1002983
15:00+23ssw71040100 0.0 10012156
18:00+22ssw5941100 0.0 999544
21:00+17ssw51365100 0.4 998393
17 september, fri
fri1700:00+13wsw3685100 0.8 998151
03:00+12wsw3889100 0.1 998228
06:00+10w379028 0.1 999173
09:00+10w476132 0.0 1000420
12:00+13wsw57415 0.0 9991609
15:00+15wsw8113295 0.0 9972651
18:00+11w7104966 0.0 9981364
21:00+7w5106284 0.0 999700
18 september, sat
sat1800:00+6w6117728 0.0 1000758
03:00+5wsw7127887 0.0 1001790
06:00+6w71171100 0.0 10031111
09:00+6w61075100 0.0 1005974
12:00+7w6971100 0.2 10061034
15:00+9w7960100 0.3 10071362
18:00+9wsw5959100 0.5 10071323
21:00+6wsw3672100 0.1 1007227
19 september, sun
sun1900:00+7sw4766100 0.1 1005400
03:00+6sw5880100 0.3 1004719
06:00+6sw5788100 0.4 1003890
09:00+6w697040 0.3 1004923
12:00+6wsw896496 0.4 10041389
15:00+7wsw81149100 0.1 10051584
18:00+6wsw71157100 0.2 10041491
21:00+4wsw61179100 0.1 10041069
20 september, mon
mon2000:00+3wsw61196100 1.0 1004907
03:00+2wnw81296100 1.4 1005718
06:00+2w61096100 1.8 1008673
09:00+2wnw6995100 0.3 1011734
12:00+4nw688090 0.6 1015888
15:00+5nw6874100 0.4 10181182
18:00+5wnw587681 0.4 1020882
21:00+3nw5108741 0.1 1022568